Location: Carrer del Canonge
(41.4901°N, 2.2931°E)
Time: 14:32:13
(UTC+00:00)

USA 234 - Pass Details

Date: 18 September 2020
Orbit: 1102 x 1106 km, 123.0° (Epoch: 16 October)

Event Time Altitude Azimuth Distance (km) Brightness Sun altitude
Rises 18:36:00 0° 55° (NE) 3,925 5.7 -8.6°
Reaches altitude 10° 18:38:48 10° 65° (ENE) 2,965 5.0 -9.1°
Maximum altitude 18:44:34 32° 127° (SE) 1,778 3.9 -10.2°
Drops below altitude 10° 18:50:18 10° 188° (S) 2,954 5.5 -11.2°
Sets 18:53:04 0° 198° (SSW) 3,909 6.2 -11.7°
